Tracking 19846 objects as of 20-Sep-2019
HD Live streaming from Space Station
objects crossing your sky now

METEOR 1-22

Track METEOR 1-22 now!
10-day predictions
METEOR 1-22 is classified as:


NORAD ID: 8293
Int'l Code: 1975-087A
Perigee: 803.8 km
Apogee: 913.6 km
Inclination: 81.3 °
Period: 102.0 minutes
Semi major axis: 7229 km
RCS: 4.5926 m2 (large)
Launch date: September 18, 1975
Source: Commonwealth of Independent States (former USSR) (CIS)
Launch site: PLESETSK MISSILE AND SPACE COMPLEX (PKMTR)
aabbcc
Your satellite tracking list
Your tracking list is empty




NASA's NSSDC Master Catalog

Two Line Element Set (TLE):
1  8293U 75087A   19262.89286438 +.00000022 +00000-0 +45440-5 0  9993
2  8293 081.2547 228.7489 0075959 126.8268 233.9903 14.12280664265465
Source of the keplerian elements: AFSPC